www.pogodaiklimat.ru

Погода и климат >> Архив погоды >> Иран >> Остров Абу-Муса


ПОГОДА на Острове Абу-Муса

  • Прогноз погоды на Острове Абу-Муса
  • Монитор погоды на Острове Абу-Муса

АРХИВ ПОГОДЫ на Острове Абу-Муса

Время (UTC), дата Ветер
(напр.,м/с)
 
Видим.   Явления Облачность Т
(С)
Тd
(С)
f
(%)
Тe
(С)
Тes
(С)
Комфортность P
(гПа)
Po
(гПа)
Тmin
(С)
Tmax
(С)
R
(мм)
R24
(мм)
S
(см)
06 13.09 ЮЗ 2 5000 м мгла ясно +34.8 +30.1 77 +62 +75 опасность
перегрева
1005.6 1004.9
09 13.09 З 2 5000 м мгла 6/3 750 м
[Sc Cs]
+36.2 +28.1 63 +57 +68 опасность
перегрева
1004.5 1003.8
12 13.09 СЗ 3 5000 м мгла 3/0
[Ci fib]
+34.8 +30.1 77 +62 +67 опасность
перегрева
1003.2 1002.5
15 13.09 СЗ 3 6000 м мгла 3/0
[Ci fib]
+33.4 +28.8 77 +56 +56 опасность
перегрева
1003.9 1003.2 +36.2
03 14.09 С 2 6000 м дымка ясно +29.8 +27.3 86 +47 +48 опасность
перегрева
1004.2 1003.5 +29.6
06 14.09 Ю 3 6000 м мгла ясно +34.4 +30.0 78 +61 +72 опасность
перегрева
1006.1 1005.4
09 14.09 ЮЗ 2 6000 м мгла ясно +35.6 +27.5 63 +55 +73 опасность
перегрева
1004.9 1004.2
12 14.09 СЗ 2 6000 м мгла ясно +36.0 +30.1 72 +63 +70 опасность
перегрева
1003.4 1002.6
15 14.09 СЗ 3 6000 м мгла 3/0
[Ci fib]
+33.4 +25.9 65 +49 +49 опасность
перегрева
1003.6 1002.9 +36.2
03 15.09 В 2 6000 м дымка 3/1 750 м
[Sc Ci fib]
+29.8 +27.9 90 +49 +50 опасность
перегрева
1005.1 1004.4 +29.4
06 15.09 ЮВ 4 6000 м мгла ясно +34.8 +30.2 77 +62 +71 опасность
перегрева
1007.3 1006.6
09 15.09 СВ 4 6000 м мгла ясно +34.6 +27.8 68 +55 +67 опасность
перегрева
1006.1 1005.4
12 15.09 С 3 10 км ясно +35.4 +30.1 74 +62 +68 опасность
перегрева
1004.1 1003.4
15 15.09 СЗ 4 10 км ясно +33.6 +26.8 68 +51 +51 опасность
перегрева
1004.5 1003.8 +37.2
03 16.09 В 2 10 км ясно +31.4 +29.0 87 +54 +55 опасность
перегрева
1006.0 1005.3 +31.4
06 16.09 Ю 5 10 км ясно +34.6 +30.1 78 +62 +69 опасность
перегрева
1007.7 1006.9
09 16.09 З 5 6000 м мгла ясно +34.4 +25.5 60 +49 +58 опасность
перегрева
1006.2 1005.5
12 16.09 З 3 10 км ясно +35.2 +26.4 60 +51 +57 опасность
перегрева
1004.3 1003.6
15 16.09 СЗ 4 10 км 3/0
[Ci fib]
+33.0 +27.6 73 +52 +52 опасность
перегрева
1004.0 1003.3 +35.4
03 17.09 Ю 4 4000 м дымка 1/0
[Ci fib]
+31.2 +29.0 88 +54 +55 опасность
перегрева
1005.4 1004.6 +29.4
06 17.09 Ю 5 6000 м мгла 3/0
[Ci fib]
+34.2 +30.2 80 +62 +68 опасность
перегрева
1006.7 1005.9
09 17.09 З 3 10 км 1/0
[Ci fib]
+36.0 +28.2 64 +57 +71 опасность
перегрева
1005.4 1004.7
12 17.09 СЗ 5 10 км ясно +35.0 +30.1 76 +62 +66 опасность
перегрева
1004.1 1003.4
15 17.09 СЗ 3 6000 м мгла 1/0
[Ci fib]
+33.2 +27.8 73 +53 +53 опасность
перегрева
1002.9 1002.2 +36.6
03 18.09 ЮВ 2 2000 м дымка 3/0
[Ci fib]
+29.0 +27.1 90 +46 +47 опасность
перегрева
1004.8 1004.0 +28.2
06 18.09 ЮЗ 2 6000 м мгла ясно +34.8 +30.1 77 +62 +74 опасность
перегрева
1006.7 1005.9
09 18.09 СЗ 3 6000 м мгла ясно +36.4 +27.8 61 +56 +71 опасность
перегрева
1005.6 1004.9
12 18.09 СЗ 5 6000 м мгла ясно +35.4 +30.1 74 +62 +66 опасность
перегрева
1004.0 1003.3
15 18.09 С 4 4000 м мгла 1/0
[Ci fib]
+33.2 +27.8 73 +53 +53 опасность
перегрева
1004.7 1004.0 +36.6
03 19.09 ЮВ 4 <100 м туман ясно +28.6 +28.0 97 +47 +48 опасность
перегрева
1006.6 1005.8 +28.6
06 19.09 Ю 4 6000 м мгла ясно +35.2 +30.2 75 +62 +70 опасность
перегрева
1008.5 1007.8
09 19.09 ЮЗ 2 10 км ясно +37.4 +22.9 43 +47 +64 опасность
перегрева
1007.6 1006.8
12 19.09 С 3 10 км ясно +36.4 +30.1 70 +63 +68 опасность
перегрева
1005.7 1005.0
15 19.09 СЗ 2 10 км ясно +33.6 +25.5 63 +48 +48 опасность
перегрева
1005.4 1004.7 +37.6

 

Местоположение метеостанции Остров Абу-Муса (Иран): широта 25.83 долгота 54.83 высота над уровнем моря 6 м.

В архиве по умолчанию представлена погода на Острове Абу-Муса за последнюю неделю. Архивные данные за месяц целиком и за предыдущие месяцы, начиная с января 2011 года, Вы можете получить, выбрав интересующий диапазон дат из раскрывающегося списка и нажав кнопку "Ввод!".


*Определитесь, кто Вы:
робот инопланетянин человек

Внимание! Время в таблицах - всемирное. Для получения местного времени необходимо прибавить поправку, которая равна 3.5 ч.

Смотрите также архив погоды в соседних городах и на ближайших метеорологических станциях:

Погода на Острове Сирри (Иран) (29 км)
Погода в Дубае (ОАЭ) (82 км)
Погода в Бендер-Ленге (Иран) (83 км)
Погода в Шардже (ОАЭ) (89 км)
Погода в Аль-Мактум аэропорту (ОАЭ) (109 км)
Погода в Рай-эль-Хайма аэропорту (ОАЭ) (113 км)
Погода на Острове Киш (Иран) (113 км)
Погода в Дибе (Оман) (144 км)
Погода в Эль-Хасаб аэропорту (Оман) (145 км)
Погода в Эль-Хасабе (Оман) (147 км)

Пояснения к столбцам:

Ветер - указаны скорость ветра в м/с - средняя за 10 мин, порывы в срок и между сроками (в фигурных скобках) и направление, откуда дует ветер: С - северный, СВ - северо-восточный, В - восточный, ЮВ - юго-восточный, Ю - южный, ЮЗ - юго-западный, З - западный, СЗ - северо-западный.
Видимость - горизонтальная дальность видимости в метрах или километрах. При видимости от 1 до 10 км при отсутствии осадков обычно наблюдается дымка, при ухудшении видимости до 1 км и менее - туман. В сухую погоду видимость может ухудшаться дымом, пылью или мглою.
Явления - указаны атмосферные явления, наблюдавшиеся в срок или в последний час перед сроком; фигурными скобками обозначены явления, наблюдавшиеся между сроками (за 1-3 часа до срока); квадратными скобками обозначены град или гололедные отложения с указанием их диаметра в мм.
Облачность - указаны через наклонную черту общая и нижняя облачность в баллах и высота нижней границы облаков в метрах; квадратными скобками обозначены формы облаков: Ci - перистые, Cs - перисто-слоистые, Cc - перисто-кучевые, Ac - высококучевые, As - высокослоистые, Sc - слоисто-кучевые, Ns - слоисто-дождевые, Cu - кучевые, Cb - кучево-дождевые. Подробнее классификацию облаков см. в Атласе облаков (PDF).
T - Температура воздуха - температура, измеренная на высоте 2 м над землей.
Td - Температура точки росы - температура, при понижении до которой содержащийся в воздухе водяной пар достигнет насыщения.
f - Относительная влажность воздуха - влажноcть воздуха, измеренная на высоте 2 м над землей.
Te - Эффективная температура - температура, которую ощущает одетый по сезону человек в тени. Характеристика душности погоды. При расчете учитывается влияние влажности воздуха и скорости ветра на теплоощущения человека.
Tes - Эффективная температура на солнце - температура, которую ощущает человек, с поправкой на солнечный нагрев. Характеристика знойности погоды. Зависит от высоты солнца над горизонтом, облачности и скорости ветра. Ночью, в пасмурную погоду, а также при ветре 12 м/с и более поправка равна нулю.
P - Атмосферное давление - приведенное к уровню моря атмосферное давление.
Po - Атмосферное давление - измеренное на уровне метеостанции атмосферное давление.
Tmin - Минимальная температура - минимум температуры воздуха на высоте 2 м над землей.
Tmax - Максимальная температура - максимум температуры воздуха на высоте 2 м над землей.
R - Количество осадков - Количество выпавших осадков за период времени, мм. При наведении курсора мыши на число - период времени, за который выпало указанное количество осадков.
R24 - Количество осадков - Количество выпавших осадков за 24 часа, мм.
S - Снежный покров - Высота снежного покрова, см. При наведении курсора мыши на число - состояние снежного покрова и степень покрытия местности в баллах.